Powrót do katalogu

SL-16 R/B

AktywnyLEO
NORAD 22220·ROCKET BODY·🇷🇺 Russia

Wystrzelony Nov 17, 1992 z Baikonur Cosmodrome

Loading…

Następne Przeloty (najbliższe 24 godziny)

TLE

ŚwieżeSource: Space-Track

Epoka: Sep 14, 2026, 23:08 UTC

1 22220U 92076B   26257.96405368  .00000186  00000-0  11638-3 0  9992
2 22220  71.0001 149.6641 0012480 176.3400 200.1472 14.16880335748640

Śledź SL-16 R/B w czasie rzeczywistym z AllMySat

Download on the App Store